GFSNIL_sfc_thetae_024.txt.gz
Theta_e
296 297 298 298 298 298 297 297 297 296 295 295 295 294 294 293 293 293 293 293 294 293
294 294 295 296 297 297 297 297 296 296 294 295 294 293 292 291 291 291 292 292 293 292
292 292 293 294 294 294 295 295 294 294 293 294 294 292 292 291 291 290 290 290 290 290
291 291 291 291 292 292 293 294 293 294 293 292 292 292 291 290 290 289 289 288 289 288
289 290 290 290 291 291 290 291 292 292 291 291 290 290 289 289 288 288 287 288 287 287
287 287 287 288 289 290 290 289 290 289 289 289 289 289 289 288 288 288 287 287 285 285
286 286 286 286 287 287 288 288 288 288 288 288 288 287 287 286 287 287 286 287 285 285
285 285 285 285 285 286 286 286 286 286 286 286 286 285 285 285 285 286 285 285 284 284
284 282 281 284 284 283 284 285 285 284 284 284 284 286 288 287 284 284 284 283 283 283
281 280 279 282 282 282 282 283 283 283 284 283 284 287 287 288 285 283 284 283 283 282
279 278 278 280 278 279 281 282 282 283 283 283 284 286 287 287 286 285 284 284 283 283
278 276 276 276 277 277 279 280 281 282 282 283 284 285 286 286 285 285 284 283 284 283
277 275 274 275 275 276 277 277 280 281 282 282 282 284 285 285 284 284 284 283 282 282
275 274 273 273 274 273 274 275 277 278 280 281 282 282 284 285 284 283 283 283 281 281

GFSNIL_sfc_thetae_027.txt.gz
Theta_e
296 296 297 297 298 298 299 300 301 300 299 299 298 298 297 296 295 295 294 294 294 294
294 294 294 295 296 297 297 297 298 299 298 297 297 296 295 294 294 294 294 294 294 293
292 293 293 293 293 293 294 295 295 296 296 296 295 295 294 293 293 293 292 292 292 292
290 290 290 290 291 291 292 292 292 293 293 294 293 293 293 292 292 291 291 291 290 290
288 288 287 287 288 289 290 291 290 290 290 291 291 292 292 291 290 290 289 290 289 289
287 286 285 285 286 287 287 288 289 288 288 288 289 289 290 290 289 289 289 289 288 287
285 285 284 284 285 285 285 285 286 287 287 287 287 287 288 287 288 288 288 288 288 288
284 284 283 282 283 284 284 284 285 285 285 286 286 285 286 286 286 286 286 287 287 287
282 282 281 281 281 283 281 282 283 283 283 284 284 286 288 287 285 285 284 284 286 285
281 280 280 280 279 280 279 280 280 281 282 282 283 286 287 288 285 285 285 284 284 284
280 279 279 278 278 277 278 278 278 280 281 281 282 285 286 287 286 285 285 285 284 284
280 278 278 276 276 276 276 276 276 278 278 279 281 284 285 285 285 284 284 285 285 285
279 277 276 276 275 275 274 275 275 275 276 277 278 282 283 284 283 283 283 284 284 285
277 276 276 275 274 273 272 272 272 272 273 275 277 278 282 284 282 282 282 283 283 284

GFSNIL_sfc_thetae_030.txt.gz
Theta_e
290 291 291 291 291 291 292 292 293 294 294 294 294 293 291 289 289 289 291 288 288 288
288 288 288 289 289 289 290 292 291 291 291 292 292 292 291 288 288 288 288 290 289 289
287 287 287 287 286 287 288 289 288 288 288 289 290 290 289 288 287 287 287 288 287 288
285 285 285 284 285 285 286 286 287 287 286 287 287 287 287 287 287 286 286 286 285 287
284 284 282 282 283 283 284 284 285 286 285 285 286 285 286 286 287 285 285 285 285 285
282 282 281 280 281 282 282 282 282 283 283 283 284 284 285 285 285 285 285 285 285 286
281 281 281 280 280 280 281 280 280 281 282 282 283 283 284 284 285 285 285 285 286 286
280 280 279 279 279 279 280 280 279 280 280 281 281 283 283 283 284 283 284 284 285 285
280 280 279 279 278 278 278 278 278 278 279 279 280 284 286 286 283 284 284 283 284 284
279 278 279 279 278 277 276 276 277 277 277 277 279 283 284 286 283 283 283 284 284 284
278 278 279 278 278 277 276 275 275 275 276 276 277 282 283 284 282 282 282 283 283 283
276 275 276 276 276 276 276 275 274 275 274 274 275 279 280 281 279 280 281 282 283 283
274 273 272 273 274 275 274 274 274 273 273 273 272 276 278 278 277 277 279 280 282 284
269 268 268 268 269 269 269 270 270 270 270 270 271 271 276 277 276 276 277 278 279 281

GFSNIL_sfc_thetae_033.txt.gz
Theta_e
287 288 288 287 287 287 288 289 289 289 289 290 292 293 291 289 288 287 288 289 286 288
286 286 286 285 285 285 287 288 288 288 287 288 288 289 289 288 287 286 287 288 288 288
285 285 285 284 284 284 285 285 285 285 286 286 287 286 286 285 286 285 286 287 286 287
285 285 284 282 282 282 283 283 283 284 284 284 284 285 285 285 285 285 285 285 285 286
284 283 283 282 281 282 282 283 282 283 282 282 283 283 282 283 283 284 284 284 284 285
282 282 281 282 281 281 281 281 282 281 281 280 281 281 282 282 282 282 282 283 284 285
279 280 280 280 280 280 280 280 280 281 281 280 280 280 281 282 281 281 282 283 283 284
279 280 280 279 279 279 279 279 279 279 279 279 279 280 279 281 281 281 282 283 283 283
279 280 280 280 280 280 279 278 278 277 277 277 278 281 283 283 280 281 281 281 282 283
279 278 278 279 278 278 277 278 277 277 277 276 276 280 281 281 280 279 280 280 281 282
276 275 276 275 275 275 275 275 275 276 276 276 276 279 280 280 277 277 278 279 280 281
272 270 271 269 270 270 270 271 271 273 273 273 274 278 278 278 275 275 275 276 277 278
269 266 265 266 265 266 266 267 268 268 269 269 269 273 275 275 273 271 272 274 275 278
266 264 263 263 263 263 263 264 263 264 265 265 266 267 272 273 271 271 271 272 273 275

GFSNIL_sfc_thetae_036.txt.gz
Theta_e
284 284 284 284 284 284 284 285 286 286 286 286 287 288 288 288 287 287 287 287 286 288
284 282 282 282 283 283 284 285 285 284 284 285 285 285 285 285 285 285 285 286 286 286
283 284 283 283 282 282 283 284 284 283 284 283 283 283 283 283 284 284 285 286 285 286
283 282 282 282 282 282 282 282 282 283 282 282 282 282 282 281 281 282 283 284 284 285
281 280 280 280 280 280 281 281 280 280 281 281 281 281 281 281 281 281 281 282 282 283
279 279 279 279 279 280 280 279 279 279 279 279 280 279 280 280 280 281 281 281 281 281
278 279 279 279 279 278 279 278 278 279 279 279 279 279 279 279 279 280 281 282 282 282
278 279 278 278 278 278 278 278 278 278 278 278 278 278 277 278 279 279 280 280 281 282
278 278 278 278 277 277 277 276 276 276 276 276 277 280 281 280 278 278 278 278 279 280
276 274 275 274 273 273 272 272 272 273 273 274 275 279 280 280 279 278 277 276 277 278
272 270 271 270 270 269 269 269 269 269 269 270 271 275 276 276 275 275 276 276 276 275
269 266 268 265 266 266 266 266 265 267 266 266 266 271 272 272 271 271 272 273 273 273
267 262 263 264 263 264 263 264 265 264 264 264 263 268 270 271 269 267 269 270 272 274
265 263 262 262 262 261 261 262 261 261 262 262 263 264 269 271 269 268 268 268 269 271

GFSNIL_sfc_thetae_042.txt.gz
Theta_e
280 280 280 280 280 280 280 281 282 282 281 282 282 282 282 282 282 282 282 282 284 285
280 279 279 279 279 279 280 282 281 280 280 281 281 281 281 280 280 280 281 282 283 283
279 279 279 279 278 278 279 279 279 279 279 279 279 279 279 279 280 279 279 280 280 281
279 279 279 278 278 278 278 278 278 278 278 278 278 278 277 277 277 276 277 278 278 279
278 278 278 278 278 278 277 278 277 277 277 277 277 277 276 276 276 276 276 276 277 277
278 278 277 277 278 277 277 276 276 276 275 275 275 275 276 276 276 276 276 276 276 277
277 277 277 277 276 276 275 274 273 273 273 273 274 274 275 275 275 275 276 276 277 277
277 277 276 275 274 273 273 272 272 272 271 271 271 273 273 274 274 273 274 274 275 276
276 275 274 273 272 271 271 270 270 270 269 269 270 273 275 275 273 272 271 271 272 272
272 271 271 270 269 268 268 268 267 267 267 267 267 272 274 274 272 271 270 270 270 271
269 268 269 268 267 266 266 266 266 265 265 266 267 271 272 273 271 270 269 270 270 270
267 265 266 263 264 265 264 264 263 265 264 263 264 268 271 271 269 269 269 269 270 270
266 261 261 263 262 263 261 263 264 264 263 263 261 267 270 271 269 267 268 269 270 272
265 261 262 260 261 259 259 261 259 260 261 261 262 263 269 271 270 269 268 269 270 271

GFSNIL_sfc_thetae_045.txt.gz
Theta_e
283 283 282 282 282 282 282 282 282 282 282 282 282 282 282 282 282 283 283 282 283 284
282 282 281 281 281 281 281 282 281 281 281 281 281 281 281 280 280 281 281 281 282 281
281 281 281 281 280 280 280 280 280 280 280 280 280 280 279 279 279 279 279 280 280 280
281 281 281 280 280 280 280 279 279 279 278 278 278 278 278 278 278 278 278 279 278 279
281 280 280 279 279 279 278 278 277 277 276 276 276 276 276 276 277 277 276 277 277 277
280 279 279 279 278 277 276 276 275 275 274 274 274 274 275 275 275 275 275 275 275 276
279 279 278 278 276 275 274 273 273 273 273 272 272 273 274 274 274 274 275 275 275 274
279 278 277 275 274 273 273 272 272 272 271 271 271 272 274 274 274 273 273 273 273 273
277 276 275 273 272 272 271 270 270 270 269 269 270 273 275 275 273 272 271 271 272 272
275 272 272 271 270 269 268 268 268 268 268 267 268 272 274 274 272 272 271 270 270 270
271 270 270 268 268 267 267 266 266 266 266 267 267 271 273 273 272 270 270 270 270 270
269 267 267 265 266 266 265 265 264 266 265 264 264 269 272 272 270 269 269 270 270 270
267 264 263 265 264 264 263 265 265 264 264 263 263 267 270 271 271 269 270 271 271 273
266 263 263 262 263 262 261 263 260 261 262 262 263 264 269 272 272 271 271 271 271 272

GFSNIL_sfc_thetae_048.txt.gz
Theta_e
288 288 288 287 287 286 286 285 285 285 285 285 285 285 285 286 285 285 285 284 285 285
288 287 286 286 286 286 285 284 284 284 284 284 284 283 283 284 283 284 284 284 284 284
287 287 286 286 285 285 284 283 283 283 283 282 282 282 282 282 283 282 283 283 282 282
286 286 286 285 284 284 283 282 281 281 281 281 280 280 280 280 281 280 281 281 281 281
286 285 285 284 283 282 281 281 280 279 279 279 279 279 278 278 279 278 278 279 279 279
285 285 284 283 282 281 280 279 278 278 277 277 277 277 277 278 278 278 278 278 277 277
285 285 284 282 280 279 278 277 277 277 276 275 275 276 276 277 277 278 277 277 277 276
285 284 282 280 278 277 276 276 275 275 274 274 274 274 276 276 277 276 276 276 276 276
283 281 280 278 276 275 274 274 274 273 273 272 273 273 275 276 275 275 274 274 274 274
281 279 278 276 274 273 273 272 272 272 271 271 272 273 275 275 274 274 274 273 273 273
279 277 275 274 273 272 272 271 271 271 270 271 271 272 273 274 274 274 273 273 273 272
277 274 273 272 271 271 271 270 270 270 270 268 269 271 272 273 273 273 272 273 273 273
275 272 271 271 270 271 270 269 269 269 269 268 267 269 271 272 273 272 273 273 274 275
272 270 270 269 269 268 268 267 267 266 267 267 267 268 271 273 273 273 273 273 274 274